This demonstration page uses our WeatherBlox Daily Observations layout. Learn more.

Left ArrowRight Arrow

44.8408, -93.29828

Hourly Observations for August 17, 2021

Temp ( °F °C ) Dew Point ( °F °C ) Humidity (%) Winds ( mph kmh ) Pressure ( in mb ) Visibility ( mi km ) Precip ( " mm )
12:53 am 00:53 Clear 71 21.7 58 14.4 63 63 S 10 17 29.92 1013 10 16 0.00 0.00
1:53 am 01:53 Clear 70 21.1 57 13.9 64 64 S 9 15 29.92 1013 10 16 0.00 0.00
2:53 am 02:53 Clear 68 20 57 13.9 68 68 S 7 11 29.92 1013 10 16 0.00 0.00
3:53 am 03:53 Clear 66 18.9 56 13.3 70 70 SE 7 11 29.93 1014 10 16 0.00 0.00
4:53 am 04:53 Clear 67 19.4 55 12.8 66 66 S 8 13 29.93 1014 10 16 0.00 0.00
5:53 am 05:53 Partly Cloudy 64 17.8 55 12.8 73 73 SSE 7 11 29.93 1014 10 16 0.00 0.00
6:53 am 06:53 Partly Cloudy 65 18.3 56 13.3 73 73 SSE 7 11 29.93 1014 10 16 0.00 0.00
7:53 am 07:53 Partly Cloudy 68 20 57 13.9 68 68 SSE 9 15 29.93 1014 10 16 0.00 0.00
8:53 am 08:53 Partly Cloudy 71 21.7 59 15 66 66 S 7 11 29.92 1013 10 16 0.00 0.00
9:53 am 09:53 Partly Cloudy 75 23.9 62 16.7 64 64 S 9 15 29.92 1013 10 16 0.00 0.00
10:53 am 10:53 Partly Cloudy 79 26.1 64 17.8 60 60 S 13 20 29.91 1013 10 16 0.00 0.00
11:53 am 11:53 Partly Cloudy 81 27.2 64 17.8 57 57 S 10 17 29.91 1013 10 16 0.00 0.00
12:53 pm 12:53 Partly Cloudy 84 28.9 66 18.9 55 55 SSE 13 20 29.89 1012 10 16 0.00 0.00
1:53 pm 13:53 Partly Cloudy 85 29.4 67 19.4 55 55 S 8 13 29.88 1012 10 16 0.00 0.00
2:53 pm 14:53 Partly Cloudy 87 30.6 67 19.4 51 51 SSE 17 28 29.87 1012 10 16 0.00 0.00
3:53 pm 15:53 Partly Cloudy 87 30.6 68 20 53 53 SSE 14 22 29.86 1011 10 16 0.00 0.00
4:53 pm 16:53 Partly Cloudy 87 30.6 69 20.6 55 55 S 14 22 29.86 1011 10 16 0.00 0.00
5:53 pm 17:53 Mostly Cloudy 86 30 69 20.6 57 57 S 12 19 29.86 1011 10 16 0.00 0.00
6:53 pm 18:53 Partly Cloudy 84 28.9 69 20.6 61 61 SSE 13 20 29.87 1012 10 16 0.00 0.00
7:53 pm 19:53 Partly Cloudy 83 28.3 68 20 61 61 S 14 22 29.88 1012 10 16 0.00 0.00
8:53 pm 20:53 Partly Cloudy 81 27.2 68 20 65 65 SSE 9 15 29.90 1013 10 16 0.00 0.00
9:53 pm 21:53 Partly Cloudy 79 26.1 68 20 69 69 S 13 20 29.92 1013 10 16 0.00 0.00
10:53 pm 22:53 Partly Cloudy 77 25 67 19.4 71 71 S 9 15 29.93 1014 10 16 0.00 0.00
11:53 pm 23:53 Partly Cloudy 76 24.4 65 18.3 69 69 S 13 20 29.94 1014 10 16 0.00 0.00

Powered by AerisWeather